Danvers, MA

6:00 PM EDT on September 30, 2016 (GMT -0400)
Beverly Municipal

Weather History for KBVY - January, 2014

Change the Weather History Date:

Monday, January 6, 2014

  Actual Average Record
Temperature  
Mean Temperature 42 °F -  
Max Temperature 55 °F 33 °F 45 °F (2016)
Min Temperature 28 °F 19 °F 8 °F (2015)
Degree Days  
Heating Degree Days 22    
Moisture  
Dew Point 42 °F    
Average Humidity 90    
Maximum Humidity 100    
Minimum Humidity 58    
Precipitation  
Precipitation 0.37 in - - ()
Sea Level Pressure  
Sea Level Pressure 29.50 in    
Wind  
Wind Speed 11 mph (SSW)    
Max Wind Speed 17 mph    
Max Gust Speed 26 mph    
Visibility 5 miles    
Events Fog , Rain    
Averages and records for this station are not official NWS values.
T = Trace of Precipitation, MM = Missing Value Source: NWS Daily Summary

Daily Weather History Graph

Daily Weather History Graph

Search for Another Location

Airport or City:

Trip Planner

Search our weather history database for the weather conditions in past years. The results will help you decide how hot, cold, wet, or windy it might be!

Date:

Astronomy

Jan. 06, 2014 Rise Set
Actual Time 7:13 AM EST 4:25 PM EST
Civil Twilight 6:41 AM EST 4:57 PM EST
Nautical Twilight 6:06 AM EST 5:32 PM EST
Astronomical Twilight 5:32 AM EST 6:06 PM EST
Moon 10:18 AM EST (1/6) 11:04 PM EST (1/6)
Length of Visible Light 10h 15m
Length of Day
9h 12m
Waxing Crescent, 34% of the Moon is Illuminated
Jan 6
Waxing Crescent
Jan 7
First Quarter
Jan 15
Full
Jan 24
Last Quarter
Jan 30
New

Hourly Weather History & Observations

Time (EST) Temp. Windchill Dew Point Humidity Pressure Visibility Wind Dir Wind Speed Gust Speed Precip Events Conditions
12:16 AM 39.0 °F 34.0 °F 37.9 °F 96% 29.92 in 0.8 mi ESE 6.9 mph - 0.06 in Rain Rain
12:30 AM 41.0 °F 35.8 °F 39.9 °F 96% 29.91 in 1.0 mi ESE 8.1 mph - 0.09 in Rain Light Rain
12:50 AM 42.8 °F 37.5 °F 39.2 °F 87% 29.88 in 0.5 mi SE 9.2 mph - 0.10 in Fog , Rain Light Rain
12:53 AM 42.1 °F 35.7 °F 41.0 °F 96% 29.87 in 0.2 mi SE 11.5 mph - 0.10 in Fog , Rain Light Rain
1:19 AM 43.0 °F 36.4 °F 42.1 °F 97% 29.85 in 0.5 mi SE 12.7 mph 19.6 mph 0.01 in Fog , Rain Light Rain
1:53 AM 44.1 °F 36.8 °F 43.0 °F 96% 29.83 in 0.5 mi SSE 16.1 mph - 0.01 in Fog , Rain Light Rain
2:37 AM 45.0 °F 38.5 °F 44.1 °F 97% 29.81 in 0.2 mi SSE 13.8 mph - 0.01 in Fog Fog
2:53 AM 45.0 °F 39.3 °F 44.1 °F 97% 29.78 in 0.2 mi SSE 11.5 mph - 0.01 in Fog Fog
3:37 AM 45.0 °F 40.1 °F 44.1 °F 97% 29.74 in 0.2 mi SE 9.2 mph - 0.00 in Fog Fog
3:53 AM 45.0 °F 39.7 °F 45.0 °F 100% 29.71 in 0.2 mi SE 10.4 mph - 0.01 in Fog , Rain Light Rain
4:53 AM 45.0 °F 40.1 °F 45.0 °F 100% 29.66 in 0.2 mi SSE 9.2 mph - 0.01 in Fog Fog
5:44 AM 46.0 °F 40.2 °F 45.0 °F 96% 29.63 in 0.2 mi SSE 12.7 mph - 0.01 in Fog , Rain Light Rain
5:53 AM 46.9 °F - 46.0 °F 97% 29.61 in 0.2 mi SSE 15.0 mph - 0.03 in Fog , Rain Light Rain
6:20 AM 46.9 °F - 46.0 °F 97% 29.61 in 0.5 mi SSE 12.7 mph - 0.02 in Fog , Rain Rain
6:44 AM 46.9 °F - 46.0 °F 97% 29.59 in 0.2 mi SE 12.7 mph - 0.08 in Fog , Rain Heavy Rain
6:53 AM 46.9 °F - 46.0 °F 97% 29.57 in 0.2 mi SSE 11.5 mph - 0.09 in Fog , Rain Light Rain
7:53 AM 46.9 °F - 46.9 °F 100% 29.55 in 0.2 mi SSE 9.2 mph - 0.02 in Fog , Rain Light Rain
8:53 AM 48.0 °F - 46.9 °F 96% 29.49 in 0.2 mi SSE 13.8 mph - 0.01 in Fog Fog
9:53 AM 50.0 °F - 50.0 °F 100% 29.44 in 0.2 mi SSE 12.7 mph - 0.00 in Fog Fog
10:08 AM 50.0 °F - 50.0 °F 100% 29.44 in 0.2 mi SSE 10.4 mph - N/A Fog Fog
10:53 AM 48.9 °F - 48.0 °F 97% 29.38 in 0.2 mi SSE 11.5 mph - 0.02 in Fog Fog
11:53 AM 54.0 °F - 54.0 °F 100% 29.31 in 2.0 mi South 13.8 mph 20.7 mph 0.03 in   Overcast
12:00 PM 55.0 °F - 54.0 °F 96% 29.32 in 4.0 mi South 12.7 mph - N/A   Overcast
12:12 PM 55.0 °F - 54.0 °F 96% 29.32 in 4.0 mi South 16.1 mph 26.5 mph N/A   Overcast
12:53 PM 55.9 °F - 55.0 °F 97% 29.29 in 10.0 mi SSW 12.7 mph 24.2 mph 0.00 in Rain Light Rain
1:18 PM 55.0 °F - 54.0 °F 96% 29.28 in 10.0 mi South 9.2 mph - 0.00 in   Overcast
1:40 PM 55.9 °F - 54.0 °F 93% 29.27 in 10.0 mi SSW 10.4 mph - 0.00 in   Overcast
1:53 PM 55.0 °F - 54.0 °F 96% 29.26 in 10.0 mi South 11.5 mph - 0.00 in   Overcast
2:28 PM 54.0 °F - 48.0 °F 80% 29.28 in 10.0 mi WSW 13.8 mph - N/A   Overcast
2:53 PM 51.1 °F - 45.0 °F 80% 29.29 in 10.0 mi WSW 15.0 mph - 0.00 in Rain Light Rain
3:00 PM 51.1 °F - 45.0 °F 80% 29.31 in 10.0 mi WSW 12.7 mph - 0.00 in Rain Light Rain
3:53 PM 48.0 °F - 43.0 °F 83% 29.32 in 10.0 mi WSW 12.7 mph 21.9 mph 0.01 in   Overcast
4:53 PM 45.0 °F 37.6 °F 41.0 °F 86% 29.31 in 10.0 mi WSW 17.3 mph 21.9 mph 0.01 in Rain Light Rain
5:04 PM 41.0 °F 32.8 °F 37.0 °F 86% 29.34 in 10.0 mi West 16.1 mph 21.9 mph 0.00 in Rain Light Rain
5:13 PM 39.9 °F 31.8 °F 35.1 °F 83% 29.34 in 10.0 mi West 15.0 mph 21.9 mph 0.00 in Rain Light Rain
5:45 PM 37.0 °F 28.9 °F 33.1 °F 86% 29.36 in 10.0 mi West 12.7 mph 19.6 mph 0.01 in Rain Light Rain
5:53 PM 37.0 °F 29.8 °F 33.1 °F 86% 29.36 in 10.0 mi West 10.4 mph - 0.01 in   Overcast
6:12 PM 36.0 °F 28.0 °F 32.0 °F 86% 29.37 in 10.0 mi West 11.5 mph - N/A   Overcast
6:53 PM 36.0 °F 28.0 °F 30.0 °F 79% 29.37 in 10.0 mi West 11.5 mph 19.6 mph N/A   Overcast
7:53 PM 35.1 °F 24.8 °F 26.1 °F 70% 29.39 in 10.0 mi West 17.3 mph 24.2 mph N/A   Overcast
8:53 PM 33.1 °F 23.4 °F 23.0 °F 66% 29.41 in 10.0 mi West 13.8 mph 23.0 mph N/A   Partly Cloudy
9:53 PM 30.9 °F 21.7 °F 19.9 °F 64% 29.42 in 10.0 mi West 11.5 mph 21.9 mph N/A   Clear
10:53 PM 30.0 °F 20.0 °F 17.1 °F 59% 29.45 in 10.0 mi West 12.7 mph 24.2 mph N/A   Clear
11:53 PM 28.0 °F 16.1 °F 15.1 °F 58% 29.47 in 10.0 mi West 16.1 mph 24.2 mph N/A   Clear